When you browse on this site, cookies collect data to enhance your experience and personalize the content and advertising you see.
Visit our Privacy Policy to learn more. By continuing to use the site, you agree to this use of cookies and data.
  • In Austria
  • List of Countries
  • For 7 days
  • Water Temperature
  • Weather Map
  • News
  • Weather Widgets
  • user-avatar
    Login

    Hourly Weather Phnom Penh

    Today, 5 December, Thursday

    Time Temperature Precipitation Wind Pressure Humidity
    00:00 +23°C° 0 mm 4 mps 759 mmHg 71%
    01:00 +23°C° 0 mm 5 mps 760 mmHg 71%
    02:00 +23°C° 0 mm 5 mps 759 mmHg 72%
    03:00 +22°C° 0 mm 5 mps 759 mmHg 73%
    04:00 +22°C° 0 mm 5 mps 759 mmHg 73%
    05:00 +21°C° 0 mm 5 mps 759 mmHg 74%
    06:00 +21°C° 0 mm 5 mps 760 mmHg 75%
    07:00 +21°C° 0 mm 5 mps 760 mmHg 76%
    08:00 +22°C° 0 mm 6 mps 760 mmHg 71%
    09:00 +24°C° 0 mm 6 mps 760 mmHg 66%
    10:00 +26°C° 0 mm 6 mps 760 mmHg 60%
    11:00 +27°C° 0 mm 6 mps 760 mmHg 58%
    12:00 +28°C° 0 mm 6 mps 759 mmHg 56%
    13:00 +30°C° 0 mm 5 mps 759 mmHg 52%
    14:00 +29°C° 0 mm 5 mps 758 mmHg 53%
    15:00 +29°C° 0 mm 5 mps 758 mmHg 54%
    16:00 +29°C° 0 mm 5 mps 758 mmHg 55%
    17:00 +28°C° 0 mm 5 mps 758 mmHg 60%
    18:00 +26°C° 0 mm 5 mps 759 mmHg 64%
    19:00 +25°C° 0 mm 5 mps 759 mmHg 69%
    20:00 +23°C° 0 mm 5 mps 760 mmHg 68%
    21:00 +23°C° 0 mm 5 mps 760 mmHg 68%
    22:00 +23°C° 0 mm 5 mps 760 mmHg 67%
    23:00 +23°C° 0 mm 5 mps 760 mmHg 68%

    Tomorrow, 6 December, Friday

    Time Temperature Precipitation Wind Pressure Humidity
    00:00 +22°C° 0 mm 5 mps 760 mmHg 68%
    01:00 +22°C° 0 mm 6 mps 760 mmHg 69%
    02:00 +21°C° 0 mm 6 mps 760 mmHg 69%
    03:00 +21°C° 0 mm 6 mps 759 mmHg 70%
    04:00 +20°C° 0 mm 6 mps 759 mmHg 70%
    05:00 +20°C° 0 mm 7 mps 760 mmHg 71%
    06:00 +20°C° 0 mm 7 mps 760 mmHg 72%
    07:00 +18°C° 0 mm 7 mps 760 mmHg 73%
    08:00 +21°C° 0 mm 7 mps 760 mmHg 69%
    09:00 +22°C° 0 mm 7 mps 761 mmHg 65%
    10:00 +24°C° 0 mm 8 mps 761 mmHg 61%
    11:00 +26°C° 0 mm 7 mps 760 mmHg 59%
    12:00 +27°C° 0 mm 7 mps 759 mmHg 56%
    13:00 +28°C° 0 mm 7 mps 759 mmHg 54%
    14:00 +29°C° 0 mm 7 mps 758 mmHg 54%
    15:00 +29°C° 0 mm 7 mps 758 mmHg 54%
    16:00 +29°C° 0 mm 6 mps 757 mmHg 54%
    17:00 +27°C° 0 mm 6 mps 758 mmHg 57%
    18:00 +26°C° 0 mm 5 mps 758 mmHg 60%
    19:00 +23°C° 0 mm 5 mps 759 mmHg 63%
    20:00 +23°C° 0 mm 5 mps 759 mmHg 64%
    21:00 +23°C° 0 mm 4 mps 760 mmHg 64%
    22:00 +23°C° 0 mm 4 mps 760 mmHg 65%
    23:00 +22°C° 0 mm 4 mps 760 mmHg 66%

    Day after tomorrow, 7 December, Saturday

    Time Temperature Precipitation Wind Pressure Humidity
    00:00 +22°C° 0 mm 5 mps 760 mmHg 68%
    01:00 +21°C° 0 mm 5 mps 760 mmHg 69%
    02:00 +21°C° 0 mm 5 mps 759 mmHg 69%
    03:00 +20°C° 0 mm 5 mps 759 mmHg 68%
    04:00 +20°C° 0 mm 6 mps 759 mmHg 67%
    05:00 +19°C° 0 mm 6 mps 759 mmHg 67%
    06:00 +19°C° 0 mm 6 mps 760 mmHg 67%
    07:00 +18°C° 0 mm 7 mps 760 mmHg 67%
    08:00 +21°C° 0 mm 7 mps 760 mmHg 62%
    09:00 +22°C° 0 mm 8 mps 761 mmHg 57%
    10:00 +24°C° 0 mm 9 mps 761 mmHg 52%
    11:00 +26°C° 0 mm 8 mps 760 mmHg 50%
    12:00 +27°C° 0 mm 8 mps 759 mmHg 48%
    13:00 +28°C° 0 mm 7 mps 759 mmHg 46%
    14:00 +28°C° 0 mm 7 mps 758 mmHg 47%
    15:00 +28°C° 0 mm 7 mps 758 mmHg 47%
    16:00 +28°C° 0 mm 6 mps 757 mmHg 48%
    17:00 +27°C° 0 mm 6 mps 758 mmHg 53%
    18:00 +25°C° 0 mm 5 mps 758 mmHg 58%
    19:00 +23°C° 0 mm 4 mps 759 mmHg 63%
    20:00 +22°C° 0 mm 4 mps 759 mmHg 64%
    21:00 +22°C° 0 mm 4 mps 760 mmHg 65%
    22:00 +21°C° 0 mm 4 mps 760 mmHg 66%
    23:00 +21°C° 0 mm 4 mps 760 mmHg 66%

    8 December, Sunday

    Time Temperature Precipitation Wind Pressure Humidity
    00:00 +20°C° 0 mm 4 mps 760 mmHg 67%
    01:00 +20°C° 0 mm 4 mps 760 mmHg 67%
    02:00 +20°C° 0 mm 4 mps 759 mmHg 67%
    03:00 +19°C° 0 mm 4 mps 759 mmHg 67%
    04:00 +19°C° 0 mm 4 mps 759 mmHg 67%
    05:00 +19°C° 0 mm 4 mps 759 mmHg 68%
    06:00 +19°C° 0 mm 5 mps 760 mmHg 69%
    07:00 +19°C° 0 mm 5 mps 760 mmHg 70%
    08:00 +21°C° 0 mm 6 mps 760 mmHg 66%
    09:00 +23°C° 0 mm 6 mps 761 mmHg 62%
    10:00 +24°C° 0 mm 7 mps 761 mmHg 58%
    11:00 +26°C° 0 mm 7 mps 760 mmHg 55%
    12:00 +27°C° 0 mm 7 mps 760 mmHg 53%
    13:00 +28°C° 0 mm 7 mps 759 mmHg 51%
    14:00 +28°C° 0 mm 6 mps 758 mmHg 51%
    15:00 +28°C° 0 mm 6 mps 758 mmHg 51%
    16:00 +28°C° 0 mm 6 mps 758 mmHg 51%
    17:00 +26°C° 0 mm 5 mps 758 mmHg 56%
    18:00 +25°C° 0 mm 5 mps 758 mmHg 61%
    19:00 +22°C° 0 mm 4 mps 759 mmHg 66%
    20:00 +22°C° 0 mm 4 mps 759 mmHg 67%
    21:00 +21°C° 0 mm 4 mps 760 mmHg 67%
    22:00 +21°C° 0 mm 4 mps 760 mmHg 68%
    23:00 +21°C° 0 mm 4 mps 760 mmHg 68%

    9 December, Monday

    Time Temperature Precipitation Wind Pressure Humidity
    00:00 +21°C° 0 mm 4 mps 760 mmHg 68%
    01:00 +20°C° 0 mm 5 mps 760 mmHg 68%
    02:00 +20°C° 0 mm 5 mps 759 mmHg 69%
    03:00 +20°C° 0 mm 5 mps 759 mmHg 70%
    04:00 +19°C° 0 mm 4 mps 759 mmHg 71%
    05:00 +19°C° 0 mm 5 mps 759 mmHg 72%
    06:00 +19°C° 0 mm 5 mps 760 mmHg 73%
    07:00 +19°C° 0 mm 6 mps 760 mmHg 74%
    08:00 +20°C° 0 mm 6 mps 760 mmHg 69%
    09:00 +22°C° 0 mm 6 mps 760 mmHg 64%
    10:00 +24°C° 0 mm 7 mps 760 mmHg 59%
    11:00 +26°C° 0 mm 6 mps 760 mmHg 55%
    12:00 +28°C° 0 mm 6 mps 759 mmHg 52%
    13:00 +29°C° 0 mm 6 mps 758 mmHg 49%
    14:00 +29°C° 0 mm 6 mps 758 mmHg 49%
    15:00 +29°C° 0 mm 6 mps 757 mmHg 49%
    16:00 +29°C° 0 mm 6 mps 757 mmHg 49%
    17:00 +27°C° 0 mm 5 mps 757 mmHg 56%
    18:00 +25°C° 0 mm 4 mps 758 mmHg 63%
    19:00 +22°C° 0 mm 4 mps 758 mmHg 70%
    20:00 +22°C° 0 mm 4 mps 758 mmHg 70%
    21:00 +21°C° 0 mm 4 mps 759 mmHg 70%
    22:00 +21°C° 0 mm 4 mps 759 mmHg 70%
    23:00 +21°C° 0 mm 3 mps 759 mmHg 71%

    10 December, Tuesday

    Time Temperature Precipitation Wind Pressure Humidity
    00:00 +20°C° 0 mm 3 mps 759 mmHg 73%
    01:00 +20°C° 0 mm 3 mps 758 mmHg 74%
    02:00 +20°C° 0 mm 4 mps 758 mmHg 74%
    03:00 +20°C° 0 mm 4 mps 758 mmHg 74%
    04:00 +19°C° 0 mm 4 mps 758 mmHg 74%
    05:00 +19°C° 0 mm 4 mps 758 mmHg 75%
    06:00 +20°C° 0 mm 5 mps 758 mmHg 76%
    07:00 +20°C° 0 mm 5 mps 759 mmHg 77%
    08:00 +21°C° 0 mm 5 mps 759 mmHg 73%
    09:00 +23°C° 0 mm 6 mps 759 mmHg 69%
    10:00 +26°C° 0 mm 6 mps 759 mmHg 64%
    11:00 +27°C° 0 mm 6 mps 758 mmHg 60%
    12:00 +28°C° 0 mm 5 mps 757 mmHg 56%
    13:00 +30°C° 0 mm 5 mps 757 mmHg 52%
    14:00 +30°C° 0 mm 5 mps 756 mmHg 52%
    15:00 +30°C° 0 mm 4 mps 756 mmHg 51%
    16:00 +30°C° 0 mm 4 mps 755 mmHg 51%
    17:00 +28°C° 0 mm 4 mps 756 mmHg 58%
    18:00 +26°C° 0 mm 3 mps 756 mmHg 64%
    19:00 +24°C° 0 mm 3 mps 757 mmHg 71%
    20:00 +22°C° 0 mm 3 mps 757 mmHg 71%
    21:00 +22°C° 0 mm 3 mps 757 mmHg 72%
    22:00 +21°C° 0 mm 3 mps 758 mmHg 73%
    23:00 +21°C° 0 mm 3 mps 758 mmHg 74%
    Show more